Hourly Data Report for April 03, 2021

CARBERRY CS
MANITOBA
Current Station Operator: ECCC - MSC

49°54'20.900" N
99°21'26.800" W
383.50 m
5010547
71170
WZE

Download Data

Hourly Data (April 2021)
Hourly Data Report for April 3, 2021
TIME
LST
Temp Definition
°C
Dew Point Definition
°C
Rel Hum Definition
%
Precip. Amount Definition
mm

Wind Dir Definition
10's deg

Wind Spd Definition
km/h
Visibility Definition
km
Stn Press Definition
kPa
Hmdx Definition


Wind Chill Definition


Weather Definition


00:00 3.0 -6.1 51 0.0 33 7   97.06     LegendNANA
01:00 0.1 -8.4 53 0.0 1 4   97.08     LegendNANA
02:00 -1.3 -7.0 65 0.0 2 8   97.10   -4 LegendNANA
03:00 1.5 -6.5 55 0.0 5 12   97.14     LegendNANA
04:00 -2.2 -8.3 63 0.0 3 8   97.24   -5 LegendNANA
05:00 0.5 -5.9 62 0.0 4 13   97.29     LegendNANA
06:00 -2.6 -6.8 73 0.0 5 6   97.35   -5 LegendNANA
07:00 -3.0 -7.2 73 0.0 7 6   97.38   -5 LegendNANA
08:00 3.6 -4.6 55 0.0 7 8   97.36     LegendNANA
09:00 6.6 -7.1 37 0.0 10 13   97.38     LegendNANA
10:00 8.8 -7.9 30 0.0 8 21   97.34     LegendNANA
11:00 10.5 -7.0 28 0.0 8 23   97.32     LegendNANA
12:00 11.3 -6.8 28 0.0 8 29   97.24     LegendNANA
13:00 12.8 -6.4 26 0.0 9 29   97.14     LegendNANA
14:00 13.6 -6.5 24 0.0 9 28   97.07     LegendNANA
15:00 14.8 -6.3 23 0.0 9 30   96.98     LegendNANA
16:00 15.0 -6.4 22 0.0 8 32   96.93     LegendNANA
17:00 14.5 -6.4 23 0.0 7 32   96.90     LegendNANA
18:00 12.7 -6.7 25 0.0 7 27   96.93     LegendNANA
19:00 9.9 -6.2 32 0.0 4 22   96.99     LegendNANA
20:00 7.3 -8.7 31 0.0 4 20   97.09     LegendNANA
21:00 5.9 -8.2 35 0.0 3 17   97.14     LegendNANA
22:00 5.1 -6.2 44 0.0 4 17   97.15     LegendNANA
23:00 3.1 -6.6 49 0.0 4 12   97.14     LegendNANA

Notes on Data Quality.

Legend

  • E = Estimated
  • M = Missing
  • NA = Not Available*
  • [empty] = Indicates an unobserved value
Date modified: